sat.trackr.live / text

‹ back to catalog

STARLINK-32375

NORAD 61070 · 2024-164W

PAYLOAD ACTIVE UNKNOWN

§ Identity

Operator
Country
US
Launch date
2024-09-13
Launch site
AFWTR
Launch vehicle
Mass (kg)
RCS (m²)

Purposes: comms

External: N2YO · Heavens-Above · Gunter

§ Orbital elements

Epoch: 2026-09-21T00:10:55.542720Z

Period
93.85 min
Inclination
53.1616°
Eccentricity
0.0001403
Mean motion
15.34390309 rev/d
Perigee alt
461.8 km
Apogee alt
463.7 km
Semi-major
6,840.9 km
B*
1.7589e-5
RAAN
263.0348°
Arg perigee
84.0468°
Mean anomaly
276.0695°
Rev number
11,339

§ Raw data

STARLINK-323751 61070U 24164W   26264.00758730  .00000218  00000+0  17589-4 0  99952 61070  53.1616 263.0348 0001403  84.0468 276.0695 15.34390309113391

JSON: /api/v1/satellites/61070 · /tle

For live sub-satellite position, see the globe view (requires WebGL).

§ Visibility from observer

Set your observer location to see the next 7 days of passes ≥ 10°. The values pass through the URL so the page stays shareable.

No JS? Fill the form by hand. The geolocation button needs JavaScript.